Location: Bessat
(45.8735°N, 1.9924°E)
Time: 08:27:22
(UTC+00:00)

Cosmos 1782 Rocket - Pass Details

Date: 11 May 2021
Orbit: 606 x 633 km, 82.5° (Epoch: 20 June)

Event Time Altitude Azimuth Distance (km) Brightness Sun altitude
Rises 23:45:13 0° 349° (N) 2,931 8.3 -26.0°
Reaches altitude 10° 23:47:28 10° 348° (NNW) 2,015 7.2 -26.0°
Enters shadow 23:51:23 65° 322° (NW) 689 3.8 -26.0°
